SCP
0 0 0 0 0 0 0 0 0 0 0 0 0 0 0 0 0 0 0 0 0 0 0 0 0 0 0
0 0 0 0 0 0 0 0 0 0 0 0 0 0 0 0 0 0 0 0 0 0 0 0 0 0 0
0 0 0 0 0 0 0 0 0 0 0 0 0 0 0 0 0 0 0 0 0 0 0 0 0 0 0
0 0 0 0 0 0 0 0 0 0 0 0 0 0 0 0 0 0 0 0 0 0 0 0 0 0 0
0 0 0 0 0 0 0 0 0 0 0 0 0 0 0 0 0 0 0 0 0 0 0 0 0 0 0
0 0 0 0 0 0 0 0 0 0 0 0 0 0 0 0 0 0 0 0 0 0 0 0 0 0 0
0 0 0 0 0 0 0 0 0 0 0 0 0 0 0 0 0 0 0 0 0 0 0 0 0 0 0
0 0 0 0 0 0 0 0 0 0 0 0 0 0 0 0 0 0 0 0 0 0 0 0 0 0 0
0 0 0 0 0 0 0 0 0 0 0 0 0 0 0 0 0 0 0 0 0 0 0 0 0 0 0
0 0 0 0 0 0 0 0 0 0 0 0 0 0 0 0 0 0 0 0 0 0 0 0 0 0 0
0 0 0 0 0 0 0 0 0 0 0 0 0 0 0 0 0 0 0 0 0 0 0 0 0 0 0
0 0 0 0 0 0 0 0 0 0 0 0 0 0 0 0 0 0 0 0 0 0 0 0 0 0 0
0 0 0 0 0 0 0 0 0 0 0 0 0 0 0 0 0 0 0 0 0 0 0 0 0 0 0
0 0 0 0 0 0 0 0 0 0 0 0 0 0 0 0 0 0 0 0 0 0 0 0 0 0 0
0 0 0 0 0 0 0 0 0 0 0 0 0 0 0 0 0 0 0 0 0 0 0 0 0 0 0
0 0 0 0 0 0 0 0 0 0 0 0 0 0 0 0 0 0 0 0 0 0 0 0 0 0 0
Wind_Speed_500mb
12 11 8 7 5 4 3 8 12 11 10 10 12 13 15 15 11 11 12 11 13 14 15 15 15 15 15
14 15 14 12 10 10 9 8 11 13 14 14 14 16 19 18 17 16 15 16 16 17 18 19 20 20 19
12 16 17 13 13 14 14 14 14 14 16 17 16 15 14 17 19 20 19 20 20 20 20 21 22 20 20
18 18 17 17 15 16 18 20 20 20 20 20 21 21 17 17 20 23 25 25 25 23 21 22 25 22 24
20 22 19 20 19 18 18 17 19 19 22 21 21 22 21 24 26 25 24 24 25 26 26 25 25 27 29
21 24 26 25 23 21 21 23 22 23 21 26 27 25 25 27 27 24 25 24 26 26 27 29 29 31 32
25 25 28 28 26 24 24 25 25 26 27 28 32 32 32 30 29 28 27 28 28 28 29 33 34 36 38
28 27 28 27 27 30 27 25 30 30 32 31 33 35 34 32 32 33 34 34 34 34 36 38 40 39 39
28 32 32 32 32 33 31 32 30 27 33 36 35 36 35 33 35 37 39 40 39 38 39 40 42 44 46
31 35 37 37 37 36 31 32 36 37 30 32 34 37 38 40 40 40 40 41 39 40 43 46 47 48 49
36 36 36 36 39 38 34 34 36 37 34 35 31 33 36 38 39 40 42 43 41 42 46 47 49 52 54
45 44 40 37 38 40 42 32 36 38 36 37 32 34 35 39 39 44 48 47 46 46 46 48 48 49 51
42 39 37 35 36 36 36 32 31 36 37 37 42 35 38 33 39 40 41 42 44 41 41 46 44 48 41
25 25 27 28 27 21 23 31 35 34 33 34 40 37 36 39 40 40 39 38 38 38 33 37 36 42 24
15 14 17 20 20 22 24 26 27 27 27 31 35 35 37 39 38 38 38 39 39 40 39 26 15 12 39
10 12 23 24 25 25 24 23 26 27 30 33 33 29 27 27 30 29 28 27 25 29 27 32 25 32 19
Wind_Direction_500mb
233 231 232 237 243 257 249 230 234 244 244 257 272 281 300 318 319 294 265 267 263 268 276 283 286 287 289
253 243 238 237 243 251 261 261 254 252 249 258 274 274 281 298 307 319 311 305 287 285 288 289 289 288 285
298 256 233 233 243 249 256 262 262 264 260 259 261 267 274 287 295 302 303 301 299 301 303 300 297 293 290
296 288 251 248 250 250 253 257 262 263 263 259 261 265 273 285 292 299 297 293 295 299 301 299 300 294 293
309 295 299 264 261 264 261 251 258 256 256 261 262 270 284 291 289 289 295 291 296 294 297 299 302 298 298
291 299 287 293 286 265 269 269 266 262 268 273 274 279 284 287 289 289 290 292 291 296 295 295 299 301 303
270 289 282 274 287 299 283 270 263 269 268 264 270 277 281 286 287 290 291 291 292 295 298 301 301 299 298
252 266 281 274 281 275 277 296 266 272 270 266 264 266 272 277 281 285 290 294 296 299 302 303 306 305 301
237 253 267 274 274 277 287 287 282 272 276 268 268 267 269 270 273 278 286 289 290 295 296 297 300 299 301
242 243 251 258 264 267 268 266 270 276 283 278 273 269 271 270 271 277 280 283 286 289 293 297 296 295 295
259 253 252 254 254 257 256 257 268 270 278 275 273 272 271 272 269 272 273 276 279 282 286 289 291 293 296
268 263 260 255 252 251 253 244 253 257 260 267 267 266 268 273 272 270 270 273 279 282 287 287 291 291 291
268 264 256 249 245 244 246 244 248 255 263 268 268 271 269 268 275 277 276 275 278 282 286 287 290 294 296
276 259 241 231 232 236 241 242 246 257 260 268 275 275 274 275 275 277 276 280 280 281 286 300 305 300 298
282 235 202 214 220 227 239 250 253 254 265 272 273 272 274 274 272 274 274 273 271 270 275 279 296 274 301
280 222 209 223 232 239 243 255 266 273 274 275 273 271 273 268 270 271 274 274 271 271 269 261 249 274 292
Wind_Speed_850mb
12 11 8 7 5 4 3 8 12 11 10 10 12 13 15 15 11 11 12 11 13 14 15 15 15 15 15
14 15 14 12 10 10 9 8 11 13 14 14 14 16 19 18 17 16 15 16 16 17 18 19 20 20 19
12 16 17 13 13 14 14 14 14 14 16 17 16 15 14 17 19 20 19 20 20 20 20 21 22 20 20
18 18 17 17 15 16 18 20 20 20 20 20 21 21 17 17 20 23 25 25 25 23 21 22 25 22 24
20 22 19 20 19 18 18 17 19 19 22 21 21 22 21 24 26 25 24 24 25 26 26 25 25 27 29
21 24 26 25 23 21 21 23 22 23 21 26 27 25 25 27 27 24 25 24 26 26 27 29 29 31 32
25 25 28 28 26 24 24 25 25 26 27 28 32 32 32 30 29 28 27 28 28 28 29 33 34 36 38
28 27 28 27 27 30 27 25 30 30 32 31 33 35 34 32 32 33 34 34 34 34 36 38 40 39 39
28 32 32 32 32 33 31 32 30 27 33 36 35 36 35 33 35 37 39 40 39 38 39 40 42 44 46
31 35 37 37 37 36 31 32 36 37 30 32 34 37 38 40 40 40 40 41 39 40 43 46 47 48 49
36 36 36 36 39 38 34 34 36 37 34 35 31 33 36 38 39 40 42 43 41 42 46 47 49 52 54
45 44 40 37 38 40 42 32 36 38 36 37 32 34 35 39 39 44 48 47 46 46 46 48 48 49 51
42 39 37 35 36 36 36 32 31 36 37 37 42 35 38 33 39 40 41 42 44 41 41 46 44 48 41
25 25 27 28 27 21 23 31 35 34 33 34 40 37 36 39 40 40 39 38 38 38 33 37 36 42 24
15 14 17 20 20 22 24 26 27 27 27 31 35 35 37 39 38 38 38 39 39 40 39 26 15 12 39
10 12 23 24 25 25 24 23 26 27 30 33 33 29 27 27 30 29 28 27 25 29 27 32 25 32 19
Wind_Direction_850mb
233 231 232 237 243 257 249 230 234 244 244 257 272 281 300 318 319 294 265 267 263 268 276 283 286 287 289
253 243 238 237 243 251 261 261 254 252 249 258 274 274 281 298 307 319 311 305 287 285 288 289 289 288 285
298 256 233 233 243 249 256 262 262 264 260 259 261 267 274 287 295 302 303 301 299 301 303 300 297 293 290
296 288 251 248 250 250 253 257 262 263 263 259 261 265 273 285 292 299 297 293 295 299 301 299 300 294 293
309 295 299 264 261 264 261 251 258 256 256 261 262 270 284 291 289 289 295 291 296 294 297 299 302 298 298
291 299 287 293 286 265 269 269 266 262 268 273 274 279 284 287 289 289 290 292 291 296 295 295 299 301 303
270 289 282 274 287 299 283 270 263 269 268 264 270 277 281 286 287 290 291 291 292 295 298 301 301 299 298
252 266 281 274 281 275 277 296 266 272 270 266 264 266 272 277 281 285 290 294 296 299 302 303 306 305 301
237 253 267 274 274 277 287 287 282 272 276 268 268 267 269 270 273 278 286 289 290 295 296 297 300 299 301
242 243 251 258 264 267 268 266 270 276 283 278 273 269 271 270 271 277 280 283 286 289 293 297 296 295 295
259 253 252 254 254 257 256 257 268 270 278 275 273 272 271 272 269 272 273 276 279 282 286 289 291 293 296
268 263 260 255 252 251 253 244 253 257 260 267 267 266 268 273 272 270 270 273 279 282 287 287 291 291 291
268 264 256 249 245 244 246 244 248 255 263 268 268 271 269 268 275 277 276 275 278 282 286 287 290 294 296
276 259 241 231 232 236 241 242 246 257 260 268 275 275 274 275 275 277 276 280 280 281 286 300 305 300 298
282 235 202 214 220 227 239 250 253 254 265 272 273 272 274 274 272 274 274 273 271 270 275 279 296 274 301
280 222 209 223 232 239 243 255 266 273 274 275 273 271 273 268 270 271 274 274 271 271 269 261 249 274 292